Starlink 32199

operational
NORAD ID: 60320 Int'l Des: 2024-133 Owner: SPXS Country: US Constellation: starlink
LEOCIRCULAR

关于 Starlink 32199

正在加载描述...

实时位置

正在加载3D地球...

即将过境

高度历史

Altitude vs Time

uPlot chart will show altitude changes over time

两行轨道根数

1 60320U 24133V 26038.26742062 .00000596 00000-0 32266-4 0 9995
2 60320 53.1608 78.2898 0001528 86.0826 274.0349 15.30195597 86989
Epoch: Feb 7, 2026 • Age: 10 hours

当前状态

高度 475.3 km
速度 7.63 km/s
星下点 21.64°N, 76.72°E
发射日期 Jul 28, 2024
运行时间 1.5 years
类型 internet

技术详情

分类 Payload
质量 730.00 kg
干质量 700.00 kg
总质量 730.00 kg
长度 0.30 m
直径 4.10 m
跨度 29.00 m
形状 Box + pan
制造商 SPXS
平台类型 Starlink V2M
阶段状态 In Orbit
所有者/国家 SPXS/US

大型星座

Loading constellations...